Zurück zum Katalog

STARLINK-3326

AktivKommunikationVLEO
NORAD 50844·PAYLOAD·🇺🇸 United States

Gestartet Jan 6, 2022 von Cape Canaveral Space Force Station

Loading…

Nächste Überflüge (nächste 24 Stunden)

TLE

AktuellSource: CelesTrak SupGP

Epoche: Sep 15, 2026, 02:36 UTC

1 50844C 22001AT  26258.10881944  .00004054  00000+0  11335-3 0  2580
2 50844  53.1598  34.7808 0000398  28.3228 341.6811 15.36114810    14

Verfolge STARLINK-3326 in Echtzeit mit AllMySat

Download on the App Store